MST,Max TemperatureF,Mean TemperatureF,Min TemperatureF,Max Dew PointF,MeanDew PointF,Min DewpointF,Max Humidity, Mean Humidity, Min Humidity, Max Sea Level PressureIn, Mean Sea Level PressureIn, Min Sea Level PressureIn, Max VisibilityMiles, Mean VisibilityMiles, Min VisibilityMiles, Max Wind SpeedMPH, Mean Wind SpeedMPH, Max Gust SpeedMPH,PrecipitationIn, CloudCover, Events, WindDirDegrees
2013-11-1,59,39,21,26,22,17,85,57,25,30.36,30.24,30.14,10,10,10,7,1,,0.00,0,,35
2013-11-2,69,44,19,24,21,17,89,51,14,30.39,30.16,29.93,10,10,10,9,2,,0.00,0,,44
2013-11-3,62,47,33,32,26,16,58,41,26,29.92,29.75,29.57,10,10,10,23,8,33,0.00,2,,240
2013-11-4,60,42,25,37,29,20,92,59,28,29.93,29.78,29.69,10,10,5,22,5,34,0.05,4,Rain,274
2013-11-5,45,33,21,39,28,7,100,74,26,30.38,30.02,29.72,10,10,4,15,4,22,0.18,5,Rain,278
2013-11-6,52,33,14,20,15,6,88,60,17,30.61,30.51,30.38,10,10,10,9,1,,0.00,0,,54
2013-11-7,57,38,19,25,22,17,89,60,27,30.61,30.39,30.22,10,10,10,13,3,,0.00,0,,28
2013-11-8,64,42,21,26,20,13,89,55,17,30.34,30.18,30.01,10,10,10,13,3,20,0.00,0,,225
2013-11-9,64,44,23,27,21,19,88,52,18,30.31,30.18,30.06,10,10,10,8,3,,0.00,0,,132
2013-11-10,64,42,21,25,21,15,85,52,16,30.40,30.26,30.15,10,10,10,12,1,,0.00,0,,337
2013-11-11,64,42,19,25,18,13,89,49,13,30.44,30.30,30.18,10,10,10,10,2,,0.00,0,,62
2013-11-12,64,42,21,28,22,15,78,50,19,30.60,30.41,30.30,10,10,10,15,4,,0.00,0,,36
2013-11-13,57,39,21,33,26,18,89,66,34,30.45,30.29,30.13,10,10,10,9,2,,0.00,0,,41
2013-11-14,59,40,21,29,20,10,89,55,14,30.22,30.09,30.00,10,10,10,17,3,,0.00,2,,21
2013-11-15,57,40,24,41,29,15,89,60,40,29.98,29.75,29.57,10,10,10,31,8,38,0.04,4,Rain,218
2013-11-16,52,44,37,39,35,31,97,78,50,29.93,29.72,29.56,10,10,8,32,17,46,0.12,6,Rain,234
2013-11-17,53,42,28,34,30,25,92,72,43,30.21,30.03,29.80,10,10,10,18,9,25,0.00,1,,200
2013-11-18,55,39,23,33,26,20,96,70,36,30.35,30.21,30.10,10,10,10,7,2,,0.00,0,,103
2013-11-19,60,40,21,34,25,18,92,61,21,30.17,29.99,29.85,10,10,10,22,5,31,0.00,0,,224
2013-11-20,48,38,28,41,35,25,97,83,63,29.98,29.91,29.82,10,9,5,17,6,,0.28,6,Rain,206
2013-11-21,46,42,37,42,39,36,96,89,82,30.05,29.98,29.87,10,9,2,15,4,26,0.11,7,Rain,182
2013-11-22,42,36,30,40,33,27,97,88,79,30.24,30.09,29.94,10,10,7,20,11,25,0.35,7,Rain,55
2013-11-23,41,34,28,32,28,22,92,82,67,30.25,30.18,30.12,10,7,1,21,12,,0.04,6,Rain-Snow,56
2013-11-24,33,28,24,29,24,21,96,87,78,30.29,30.18,30.09,10,4,0,10,7,,0.11,8,Fog-Snow,67
2013-11-25,39,34,28,31,28,25,92,81,65,30.38,30.22,30.07,10,10,10,13,6,,0.00,6,,277
2013-11-26,43,35,26,32,28,24,96,84,62,30.49,30.41,30.33,10,10,9,13,3,,0.00,4,,360
2013-11-27,45,33,21,33,26,20,96,82,60,30.46,30.32,30.19,10,9,2,15,3,,0.00,0,,35
2013-11-28,51,37,23,31,26,20,92,75,39,30.31,30.22,30.07,10,10,10,9,2,,0.00,0,,40
2013-11-29,53,37,21,34,27,19,96,77,40,30.47,30.33,30.22,10,10,10,7,1,,0.00,0,,340
2013-11-30,48,36,25,37,29,24,100,92,61,30.46,30.35,30.22,10,4,0,8,2,,0.00,5,Fog,315